Theta_e
327 331 332 333 333 331 331 330 333 337 336 334 333 335 336 336 335 330 332 331 319 317 321 318 319 319 319 320 318 318 319 319 320 318 316 315 313 312 313 313 315 317 318 318 320 322 325 326 329 330 330 331 331 331 331 331 331 331 331 330 330 330 329 328 328 328 328 327 327 326 327 327 327 327 327 326 326 326 326 325 325 325 325 324 323 324
326 330 330 330 331 331 331 332 334 337 334 333 333 334 336 336 335 333 332 330 321 320 325 321 319 320 318 318 319 318 319 319 319 319 318 317 315 313 313 313 313 314 314 315 316 316 320 323 325 328 329 330 330 330 331 331 331 331 331 330 330 330 329 329 328 328 328 328 328 327 327 327 327 326 326 326 325 325 325 326 326 325 325 324 323 323
328 328 327 326 330 332 332 333 334 334 333 335 334 334 336 335 334 335 330 327 322 323 329 328 323 323 320 319 319 319 319 319 318 318 319 319 318 315 313 313 313 313 314 315 315 313 315 319 322 326 328 329 330 330 330 331 331 331 331 331 330 330 330 329 329 328 329 329 328 328 328 327 327 326 326 326 325 325 325 326 327 326 326 326 324 324
330 328 325 324 328 332 333 332 332 334 334 337 336 334 337 335 335 338 333 325 323 323 327 329 326 324 322 322 321 319 319 319 319 319 319 319 319 318 316 315 314 314 314 314 314 313 313 315 319 323 326 329 330 330 330 331 331 331 331 331 331 330 330 330 329 329 329 329 329 329 328 327 327 327 327 326 326 325 326 326 327 327 326 326 326 325
330 328 325 325 328 331 333 332 332 334 335 336 336 335 337 336 335 338 333 324 321 321 322 324 329 329 326 327 325 322 322 321 321 320 320 320 319 320 319 318 316 315 315 315 315 314 312 313 316 320 324 327 329 330 330 330 331 331 331 331 331 331 330 330 330 329 329 328 328 328 327 327 326 326 326 326 326 326 326 326 326 326 326 326 326 326
329 327 326 327 328 330 332 333 333 334 336 337 336 335 337 337 336 335 327 322 325 329 325 324 334 338 335 334 329 325 326 324 321 321 321 321 320 321 320 318 318 317 316 316 315 314 312 312 315 318 322 325 328 329 330 330 331 331 331 331 331 330 330 330 329 329 328 328 328 327 326 326 326 325 326 326 326 326 326 326 325 326 326 326 327 327
327 325 326 327 329 330 332 333 333 332 335 337 335 335 337 336 336 334 326 328 335 336 328 323 333 341 338 337 334 329 329 326 323 322 321 320 320 320 320 319 319 318 317 317 316 315 313 312 313 316 319 323 327 328 330 331 331 331 331 331 331 331 331 330 330 329 328 328 328 327 327 327 326 326 326 327 326 326 326 326 325 326 326 326 327 327
327 325 326 328 329 331 331 332 332 332 335 337 336 336 336 334 334 331 327 333 335 331 327 321 327 337 334 333 336 333 332 330 328 326 323 320 319 319 319 319 319 319 318 318 318 317 315 312 312 314 317 320 324 327 328 330 331 331 331 331 331 331 331 331 330 329 328 328 328 327 327 327 327 327 327 327 326 326 326 326 326 326 326 326 326 327
325 326 326 327 329 329 330 330 330 331 333 333 336 336 335 334 334 330 326 330 331 330 331 325 323 331 333 331 332 328 329 332 329 328 326 323 321 320 319 319 318 318 318 318 318 318 316 312 312 313 315 318 321 324 327 329 330 331 331 331 331 331 331 331 331 330 329 329 328 327 327 327 328 328 328 327 326 326 326 326 326 326 326 326 326 326
326 325 325 326 328 328 330 330 329 331 331 329 331 333 332 333 333 332 330 332 333 331 333 329 324 331 335 332 330 326 327 330 328 327 326 324 324 322 320 320 319 318 318 318 318 317 315 313 313 313 314 316 318 321 325 327 329 330 331 331 331 331 331 331 331 331 330 329 329 328 328 328 328 328 327 327 327 326 326 326 327 327 327 327 327 327
326 324 324 325 326 327 331 330 328 330 329 327 330 332 332 333 332 334 333 332 334 334 333 331 326 330 335 334 330 327 327 329 327 327 327 326 327 325 322 321 320 319 318 318 318 316 313 312 313 313 313 314 317 320 323 326 328 330 330 330 331 331 331 331 331 331 330 330 329 329 329 328 328 328 327 327 327 326 327 327 327 327 327 327 327 327
327 326 327 327 326 326 329 329 327 328 328 330 334 334 334 333 330 332 332 330 335 336 333 331 326 327 333 336 334 329 328 330 328 328 329 328 329 327 325 323 321 320 319 319 320 318 315 313 312 311 311 313 315 319 322 325 328 329 329 330 330 331 331 331 331 331 331 330 330 330 330 329 329 329 328 327 328 327 327 327 327 327 327 327 327 327
328 327 327 328 326 325 329 329 327 327 328 331 333 334 336 335 332 335 334 333 337 334 326 324 325 327 330 333 333 330 327 328 327 325 327 329 329 327 325 323 320 320 320 320 320 319 318 317 312 309 310 311 314 318 321 324 326 328 329 329 330 330 330 330 330 330 331 330 331 330 330 330 330 329 329 329 328 328 327 327 327 327 327 326 327 326
329 328 327 328 327 325 327 329 328 329 329 329 331 334 337 335 336 340 336 334 338 332 323 321 325 329 331 331 329 327 325 325 325 323 324 325 325 324 323 323 322 321 320 319 318 318 318 317 312 308 310 311 312 316 320 323 325 327 328 329 329 330 330 330 330 330 331 330 330 331 330 330 330 329 330 329 329 329 328 328 327 327 327 327 327 327
330 331 329 327 328 327 326 328 328 329 328 328 330 333 334 334 338 341 339 339 337 329 322 322 328 333 336 331 324 322 324 324 324 323 323 323 321 321 322 322 323 322 320 319 316 316 317 313 309 309 310 310 311 314 318 321 324 326 327 328 329 329 329 330 330 330 330 330 330 330 330 330 330 330 329 329 329 329 328 328 328 327 327 327 327 327
330 333 329 326 327 327 327 327 326 328 330 329 330 335 334 333 336 334 330 331 333 330 325 324 328 331 331 326 320 319 321 321 321 320 320 322 320 319 320 319 320 320 320 324 323 319 316 310 306 308 310 310 311 312 315 319 323 325 326 327 328 328 329 329 330 330 330 330 330 330 330 330 330 329 329 329 329 328 328 328 328 328 328 327 327 327
329 331 328 326 328 326 327 328 325 328 331 328 330 334 329 327 333 331 323 323 328 334 331 326 327 330 329 326 323 323 323 322 322 321 319 319 317 317 319 318 318 320 321 327 328 321 315 309 306 307 308 309 311 311 314 316 320 323 325 326 327 328 328 328 329 330 330 330 330 329 330 330 329 329 329 329 328 328 328 328 328 328 328 328 328 327
329 331 327 326 329 327 325 327 326 327 329 329 330 330 325 325 332 332 329 328 329 332 332 327 326 331 334 332 324 322 325 324 323 323 321 319 318 319 319 316 317 318 320 324 325 319 315 310 305 306 308 310 311 311 313 314 317 320 322 324 326 326 327 328 328 329 329 329 329 329 329 329 329 329 329 329 328 328 328 328 328 328 328 328 328 327
328 331 327 325 328 328 325 326 328 328 326 327 329 326 327 332 331 330 331 332 330 331 334 328 322 325 330 329 321 319 325 324 321 322 320 319 321 321 321 321 319 318 319 323 324 323 322 313 305 305 308 309 310 311 312 313 314 316 320 322 324 325 326 327 327 328 328 328 329 329 329 329 328 328 328 328 328 328 328 328 328 328 328 328 328 327
326 330 329 325 325 327 327 327 330 329 325 325 327 326 330 333 331 330 332 334 333 332 334 331 326 326 326 322 320 323 326 323 320 321 320 320 319 319 321 325 325 321 321 324 326 329 331 317 304 305 309 309 310 311 311 311 311 313 316 319 321 323 324 325 326 327 327 328 328 328 328 328 328 328 328 328 328 328 328 328 328 328 328 328 328 328
324 328 330 325 323 328 330 328 328 329 325 326 329 329 329 329 329 331 331 333 334 332 335 334 331 332 328 320 319 321 322 321 321 321 320 321 320 318 319 322 324 322 320 323 326 330 335 320 304 305 310 309 310 310 309 310 310 311 313 315 318 320 322 323 324 325 326 326 327 327 327 327 327 328 328 328 328 328 328 328 328 328 328 328 328 328
325 327 327 324 325 330 330 327 326 327 325 326 328 328 328 327 329 333 332 330 330 330 335 334 330 332 329 318 316 319 319 318 319 318 318 322 324 325 323 318 318 319 319 322 324 328 335 323 306 305 308 308 309 309 309 310 309 310 311 312 315 317 319 321 322 323 324 325 325 326 326 327 327 327 327 328 328 328 328 328 328 328 328 328 329 329
326 327 326 325 326 327 325 325 328 328 324 324 326 326 327 326 327 332 333 330 327 326 330 330 328 329 322 314 315 318 318 318 320 320 319 322 326 329 324 315 314 317 318 319 320 324 326 314 303 304 307 307 308 310 310 310 309 309 310 310 312 314 316 318 320 321 322 323 324 325 325 326 326 326 327 327 327 327 328 328 328 328 328 328 329 328
325 326 325 325 325 322 321 322 326 328 325 325 326 325 326 327 326 330 331 330 329 327 327 329 330 329 320 315 317 320 319 320 321 321 320 321 323 325 324 319 316 317 317 317 318 320 316 307 304 306 305 306 309 309 310 311 310 310 310 309 310 311 313 315 317 319 321 322 323 324 324 325 325 326 326 326 327 327 327 328 328 328 328 327 327 327
326 325 324 327 327 324 324 325 325 325 324 325 325 324 325 326 326 328 328 326 328 329 328 330 333 329 320 316 317 319 320 320 319 318 318 319 321 324 326 325 319 316 318 319 319 321 321 319 318 310 303 305 308 309 310 311 311 312 311 310 310 310 310 311 312 315 316 318 321 321 323 323 324 324 325 325 326 326 326 326 325 325 325 325 325 324
325 326 324 327 329 327 328 330 328 325 324 324 324 324 325 326 325 326 327 325 328 329 327 328 331 326 316 313 315 316 317 319 319 319 316 315 319 323 326 329 325 319 321 323 323 324 324 324 323 312 303 305 308 307 309 310 311 312 312 311 311 311 310 310 309 310 311 312 314 316 317 318 319 320 320 321 321 321 321 322 322 322 323 322 323 322
325 327 325 325 326 326 328 330 328 325 325 325 325 324 324 325 324 325 327 327 327 328 327 325 326 324 318 317 319 319 320 323 325 323 320 319 320 322 325 328 328 323 322 323 322 322 322 321 323 317 305 303 307 307 308 310 310 311 311 311 311 311 311 311 310 310 309 309 310 311 311 312 312 313 314 315 316 317 318 319 320 321 321 321 321 320
324 324 324 324 324 323 326 328 326 325 325 326 325 324 324 324 325 325 328 327 326 328 328 324 324 324 321 323 329 329 326 326 326 325 323 322 321 323 325 326 326 323 321 320 320 323 324 324 325 320 305 301 306 307 307 309 309 309 310 310 310 310 311 311 311 310 310 310 309 309 309 309 310 311 312 313 315 316 317 318 319 319 319 319 319 319
323 323 323 324 324 323 326 328 327 324 325 325 325 324 323 324 325 325 326 326 325 326 327 324 323 322 320 322 329 328 325 324 324 321 318 316 317 322 325 326 327 327 324 324 324 325 326 326 325 320 307 301 304 306 306 308 308 308 310 310 310 310 310 311 310 310 310 310 310 310 310 310 310 311 312 314 315 316 316 316 317 318 318 318 318 318
322 323 323 324 324 323 325 329 327 324 324 325 325 324 324 323 324 324 324 324 324 324 324 323 323 321 318 319 322 322 321 322 321 317 313 314 318 321 325 326 327 327 325 326 326 324 323 322 319 315 307 300 301 304 305 306 308 309 310 310 310 310 310 310 310 309 309 310 310 310 310 311 312 312 313 314 314 315 316 316 316 316 317 316 316 315
322 324 324 324 324 323 324 327 327 325 325 325 325 324 324 323 323 324 323 323 324 324 323 322 323 321 318 317 317 318 319 319 317 315 314 317 320 321 324 326 325 324 323 323 323 321 319 317 315 316 311 302 301 303 304 306 307 308 309 310 310 310 310 310 309 309 309 309 310 310 311 311 312 312 313 314 314 314 314 314 315 314 314 314 313 312
321 325 325 324 324 324 323 324 325 325 325 326 325 325 324 324 323 323 323 323 323 323 324 323 323 321 319 318 317 317 318 318 317 317 316 318 321 323 323 323 323 325 324 323 322 320 319 318 318 319 313 304 301 303 305 306 306 306 308 310 310 309 309 310 309 309 309 309 309 309 310 310 311 311 311 312 312 312 312 312 312 312 311 311 310 309
321 323 324 324 324 324 323 322 323 324 326 326 325 324 324 323 323 323 322 322 322 322 323 323 322 320 319 321 320 318 317 317 317 317 317 317 319 321 321 320 322 323 321 321 321 320 318 317 314 310 306 303 303 305 307 307 307 307 309 309 308 309 309 309 310 309 309 309 309 309 310 310 310 310 310 310 310 310 310 310 309 309 309 308 307 306
322 323 323 323 324 325 323 321 322 324 326 327 324 322 323 323 323 323 323 322 322 321 322 322 321 321 323 323 321 318 316 315 315 316 317 317 317 318 317 316 318 319 318 316 316 314 313 312 307 303 302 303 305 307 307 307 307 308 308 307 307 308 309 309 309 309 309 309 310 310 310 310 310 310 310 310 310 309 308 308 307 307 306 305 304 304
321 323 322 322 324 324 322 321 323 324 325 325 323 321 321 321 322 323 323 321 321 321 322 322 321 321 322 321 319 320 318 315 315 317 317 317 317 317 318 317 317 320 319 318 316 313 311 309 305 301 302 305 307 307 307 306 307 307 306 306 307 307 308 309 309 309 309 309 309 310 310 310 310 310 310 309 308 307 307 306 305 304 303 303 303 303
317 320 321 322 322 324 323 322 324 327 325 324 322 321 320 321 322 323 323 322 321 320 321 321 321 320 320 319 322 325 322 317 316 317 316 316 316 316 317 318 318 319 319 318 317 314 311 308 305 303 304 307 307 305 305 307 307 306 305 306 307 307 307 308 308 308 308 308 309 309 309 310 310 309 308 307 305 305 305 304 303 302 302 302 303 304
312 316 319 321 322 323 324 322 323 327 326 323 322 320 321 321 321 323 324 323 320 320 320 320 320 320 319 320 323 324 320 315 316 316 314 314 316 317 317 317 317 317 317 315 313 312 311 309 308 307 306 306 305 304 306 307 306 305 305 305 306 306 306 305 306 308 308 308 308 309 309 309 309 308 307 304 304 304 304 303 302 302 302 303 303 305
311 313 316 319 321 323 324 324 325 327 326 323 321 320 319 320 320 321 323 323 321 320 320 320 320 320 319 320 321 320 318 317 318 317 315 314 315 316 317 316 316 316 313 311 310 310 311 311 309 308 307 305 304 305 306 306 305 304 304 305 305 305 304 304 306 307 307 308 309 309 309 308 308 307 305 303 304 305 304 303 302 302 302 302 303 305
309 311 312 314 319 322 323 325 324 324 325 323 321 319 319 320 321 321 323 324 322 321 320 319 319 320 319 319 319 319 318 319 319 317 317 318 317 316 316 316 314 311 308 307 309 309 310 311 310 307 305 304 304 306 306 305 304 304 304 304 304 304 302 304 306 307 308 310 309 308 308 308 307 307 306 305 305 305 303 303 302 302 302 302 303 305
309 311 313 316 318 319 322 325 325 325 326 326 322 319 319 320 320 324 325 324 320 319 319 318 318 319 318 319 319 318 317 319 319 317 318 321 319 316 314 314 313 311 307 306 308 309 309 309 308 305 303 303 305 306 306 304 303 303 304 304 303 302 302 306 309 309 309 309 308 307 307 307 306 306 306 306 305 304 302 302 302 302 302 303 304 305
312 313 315 318 318 319 321 324 326 327 326 325 323 318 318 319 321 323 325 323 319 320 319 318 318 318 318 319 318 317 316 317 317 318 321 322 319 315 314 312 310 309 308 306 307 308 307 306 305 304 304 304 305 305 304 303 302 302 303 303 301 302 306 309 309 309 308 306 305 305 305 305 305 305 305 304 303 302 301 301 301 301 302 303 304 304
315 315 315 317 319 319 320 322 326 327 321 317 318 317 317 321 323 322 322 320 321 323 320 317 318 318 318 318 317 316 317 316 316 319 323 321 317 316 316 313 310 309 309 308 308 308 306 304 304 304 304 304 304 304 303 302 302 302 302 301 301 305 308 309 308 307 305 305 305 304 304 304 304 304 303 302 301 300 299 299 300 301 303 304 304 304
315 316 317 318 318 319 320 321 325 326 318 312 315 319 319 319 318 317 319 318 317 321 321 318 317 318 317 317 317 316 316 316 316 318 321 320 318 317 317 315 313 311 309 307 307 307 306 305 304 303 304 304 304 303 302 301 301 302 301 301 303 307 308 308 306 304 304 304 304 304 304 304 303 302 301 300 300 299 298 298 299 301 303 304 304 303
313 315 317 317 317 319 321 321 321 322 316 310 312 316 315 313 312 312 315 316 315 317 319 319 318 319 317 316 316 317 316 316 316 316 317 318 318 316 315 314 312 310 308 305 305 306 306 305 304 305 306 306 305 303 303 302 301 301 300 302 306 306 306 305 303 303 303 302 303 303 303 303 303 302 300 300 299 298 298 298 299 300 302 303 303 302
310 312 314 314 314 315 317 318 317 316 313 309 309 311 311 311 312 311 311 314 314 314 317 317 316 318 319 316 316 316 316 315 315 315 315 315 315 314 313 311 308 306 305 304 304 306 306 305 304 305 306 306 306 304 303 302 302 300 300 304 306 306 306 305 303 302 302 302 302 302 302 302 301 301 300 299 298 297 298 298 299 300 301 301 302 301
309 310 311 311 312 312 312 312 312 312 313 311 309 309 310 312 314 312 311 314 315 315 317 316 313 315 318 318 317 318 319 317 315 315 316 316 317 318 317 315 311 306 305 304 303 305 306 304 303 303 303 305 306 305 305 304 302 301 304 306 307 306 305 304 302 302 302 302 302 301 301 300 299 299 298 298 297 297 298 298 298 299 299 299 300 299
309 310 310 310 312 313 312 312 313 314 315 313 311 310 310 312 314 314 313 314 315 314 315 315 315 315 316 317 319 321 322 321 317 317 318 318 319 319 317 317 315 310 305 304 305 304 304 303 302 300 300 302 305 306 305 305 304 304 306 307 306 304 303 302 302 302 301 301 301 300 299 299 298 297 297 297 297 297 297 297 298 298 298 298 298 298
310 310 311 311 311 312 312 313 314 314 313 312 311 310 309 310 312 313 313 314 313 313 312 311 312 312 313 316 319 319 320 321 320 320 321 320 319 317 315 316 317 311 304 303 304 304 302 300 300 300 299 301 304 305 304 304 305 305 306 306 304 302 302 302 301 301 300 300 300 299 298 298 298 297 296 296 296 297 297 297 297 297 298 298 298 298
307 308 311 312 311 311 311 311 312 312 313 314 315 313 311 311 311 312 312 311 311 313 313 310 309 310 312 315 316 315 316 319 320 320 320 320 319 318 317 317 312 304 300 302 303 302 301 299 300 300 300 302 305 305 304 304 305 305 305 305 303 302 301 301 300 300 299 299 298 297 297 297 297 296 296 296 296 296 297 297 297 297 298 298 298 298
306 308 310 311 311 311 311 313 313 311 311 312 315 315 313 311 312 314 314 312 311 311 311 310 309 309 310 311 311 312 312 314 315 315 315 316 318 317 316 314 307 298 297 300 302 300 299 299 299 299 300 303 305 303 302 303 304 304 304 304 303 301 301 300 300 298 298 297 297 297 296 296 295 295 295 295 295 295 296 296 296 297 297 297 297 298
305 307 308 310 311 309 308 311 313 310 308 308 310 312 310 308 310 312 312 311 310 309 308 309 310 310 309 308 307 308 309 310 310 310 310 312 313 310 306 305 306 303 300 299 299 297 297 298 298 297 298 302 304 302 301 303 303 303 303 302 301 301 300 300 299 297 297 297 297 296 296 296 295 295 295 295 295 295 295 295 295 296 297 297 297 297
Wind_Speed
6 6 9 12 14 15 15 15 10 4 7 9 7 6 8 8 6 4 4 4 6 6 7 11 12 12 11 13 15 9 5 6 8 8 8 8 8 8 9 9 10 11 13 18 24 28 28 32 34 34 34 33 33 34 34 34 36 38 38 37 39 39 39 38 39 38 38 38 36 36 37 39 39 39 38 38 39 39 38 37 37 37 36 35 36 37
6 9 16 18 15 13 11 8 5 5 8 9 9 8 8 8 6 4 5 3 4 4 5 7 8 13 13 14 13 8 6 8 10 10 11 11 10 9 9 11 11 10 10 12 17 23 25 28 30 30 30 31 33 35 36 37 39 40 38 39 39 39 39 40 41 40 40 40 39 38 38 39 39 39 40 40 41 41 41 40 40 39 38 37 37 39
8 14 20 17 11 9 9 7 5 6 9 8 7 7 7 5 1 2 2 1 4 4 4 4 6 11 12 12 12 11 10 9 10 12 13 12 11 10 9 10 11 10 9 10 12 17 22 26 28 28 29 33 36 37 38 39 40 39 39 40 40 39 40 42 41 41 41 41 40 39 38 37 37 37 39 40 40 40 41 41 41 41 40 39 39 39
11 15 18 15 10 12 11 9 7 4 6 6 6 6 5 4 4 3 3 2 4 3 2 1 5 9 8 8 12 13 11 9 10 12 12 11 11 11 11 10 11 11 11 12 12 13 18 23 25 27 30 33 34 34 36 38 39 39 40 41 41 40 41 42 42 43 42 40 38 38 37 35 34 34 35 36 38 39 40 41 41 42 42 40 40 39
9 5 13 16 13 14 11 10 10 6 4 3 5 7 4 5 6 4 2 2 1 1 1 3 5 8 6 8 13 10 6 8 11 11 12 12 11 11 10 10 10 11 12 13 14 13 13 18 23 28 31 31 32 34 36 38 40 40 41 42 42 41 41 41 43 43 41 38 36 35 33 31 30 30 30 31 36 39 40 41 42 43 42 41 41 40
8 5 16 18 13 15 13 12 13 9 6 4 6 7 6 7 6 4 4 3 1 3 2 3 3 8 4 7 13 7 2 8 8 9 14 13 10 10 10 11 11 11 12 12 14 13 12 17 22 26 29 31 33 36 38 39 41 42 42 41 40 40 40 41 41 41 40 38 37 35 33 31 29 28 30 35 38 38 39 42 42 41 40 40 40 40
5 7 15 17 15 17 14 11 13 12 8 6 5 7 6 7 6 5 6 3 3 4 3 3 5 7 4 6 10 6 5 10 8 9 13 11 9 10 10 12 12 12 12 11 13 12 11 15 18 22 28 32 35 38 38 38 39 40 40 40 40 40 40 40 39 39 39 39 39 38 38 36 33 32 35 39 38 36 37 38 38 38 38 38 39 39
8 12 15 18 17 15 13 12 14 15 10 4 7 11 6 6 6 5 6 4 4 2 3 1 3 5 8 7 5 3 6 10 10 11 12 9 11 11 11 13 13 13 12 11 13 13 13 15 19 23 29 34 36 37 36 37 38 39 40 40 40 41 41 39 38 38 40 41 41 40 39 37 37 38 39 37 35 34 34 34 35 36 36 36 36 37
14 17 19 21 17 13 13 11 12 14 8 2 6 10 6 6 5 3 4 2 1 2 3 3 3 3 9 6 2 0 5 11 14 15 13 10 11 12 13 13 12 13 13 12 13 14 14 18 24 28 31 33 36 37 36 38 40 40 41 41 40 40 40 39 38 39 40 42 42 40 38 38 39 41 39 33 31 32 32 33 34 33 34 34 34 35
8 14 17 18 13 10 8 7 12 14 6 1 7 9 6 5 5 4 3 3 3 2 7 6 5 5 9 7 3 1 4 12 14 12 11 10 10 10 11 12 12 12 12 12 13 14 16 20 25 28 29 30 33 36 37 38 39 39 39 39 38 39 39 39 39 39 40 41 40 39 39 40 41 39 35 32 31 32 31 33 33 32 32 32 32 33
5 8 10 10 9 7 7 8 9 11 7 6 8 8 7 5 5 4 2 4 2 5 7 9 10 7 8 8 7 5 7 11 11 9 8 7 8 10 10 11 12 11 9 10 10 12 16 21 23 24 25 28 31 32 34 35 36 36 36 37 38 39 39 39 39 39 39 40 40 41 41 42 42 39 33 32 34 33 32 33 32 31 31 31 31 31
8 9 7 6 8 10 11 7 4 7 9 7 6 6 4 2 3 3 3 3 2 6 5 7 10 9 9 6 5 7 8 8 9 9 8 8 10 12 11 10 10 9 8 8 8 9 12 15 17 18 23 27 28 28 31 33 34 34 35 35 37 38 38 38 38 39 40 40 41 43 43 43 43 39 35 36 38 36 34 34 32 30 30 30 29 29
7 9 9 6 8 13 14 7 3 5 8 5 6 7 5 1 0 2 1 1 4 5 2 2 6 7 11 6 4 9 9 8 9 9 9 10 11 12 10 9 8 7 6 6 7 9 9 10 11 15 21 24 26 28 31 33 33 34 35 35 36 38 39 38 38 39 41 41 43 44 44 45 43 40 39 40 40 37 35 33 31 30 30 29 29 29
6 7 9 7 5 12 15 10 6 5 8 9 9 10 8 5 4 7 6 2 4 4 1 2 4 4 8 4 8 15 13 11 11 9 10 10 10 11 9 8 7 6 7 7 8 8 9 9 10 15 20 22 26 29 31 32 34 35 35 36 37 38 38 38 39 40 41 42 44 45 45 45 43 40 40 41 40 37 34 33 32 32 31 30 31 31
11 7 12 14 9 14 17 15 14 10 10 11 8 6 7 6 6 7 6 4 3 1 1 2 3 4 5 2 6 11 10 9 8 8 9 8 9 9 8 8 8 8 8 7 7 9 9 10 12 16 19 22 25 27 29 31 33 34 35 36 38 37 37 38 39 40 41 43 44 44 44 44 43 41 41 41 39 37 34 34 33 32 32 32 33 33
10 5 11 14 9 17 18 12 13 12 8 7 4 4 6 5 4 1 2 3 3 2 1 3 3 4 4 6 9 6 6 8 8 8 7 9 10 7 7 9 8 9 9 7 7 9 9 10 12 15 18 20 22 24 27 30 32 34 36 36 38 38 38 38 40 41 42 43 43 43 44 43 42 41 40 39 38 37 35 34 32 32 33 34 34 33
8 5 12 12 8 19 20 12 15 13 9 5 4 7 4 3 7 4 1 1 4 2 4 3 6 5 3 9 11 10 11 10 10 10 9 10 9 7 8 9 8 9 9 8 7 8 7 8 11 15 17 19 22 25 28 31 34 36 37 37 38 38 37 38 40 42 42 42 42 42 42 41 40 40 40 39 37 36 34 33 33 34 34 34 34 33
8 3 9 14 14 19 16 13 15 10 7 8 8 8 4 4 3 4 1 3 3 4 4 2 8 5 1 6 6 7 13 14 14 14 10 8 7 8 9 9 9 10 9 8 7 7 7 6 10 15 18 21 24 26 29 32 34 36 37 37 38 38 38 38 39 40 41 41 40 40 40 40 40 39 39 38 37 35 33 34 35 35 35 35 34 32
6 3 2 10 12 11 7 10 10 4 1 3 7 8 6 3 2 2 3 2 2 5 4 3 5 4 7 8 2 4 11 14 15 13 9 8 8 9 9 9 10 9 8 8 7 6 6 7 11 16 19 22 24 25 27 28 30 33 34 35 36 37 37 38 38 39 39 39 39 39 39 39 39 38 37 37 36 35 35 36 36 36 36 35 33 32
6 4 2 4 4 9 7 7 10 7 2 4 4 5 3 3 4 4 4 2 3 5 5 4 2 4 9 8 7 10 11 10 11 9 8 11 10 9 9 8 9 8 8 8 6 6 6 7 11 16 19 21 22 24 25 25 26 29 31 33 34 34 34 34 35 36 36 37 38 38 37 37 36 36 36 36 36 36 37 37 37 36 35 34 33 32
3 4 4 1 3 9 9 9 15 17 9 5 7 7 6 4 2 2 3 2 3 5 5 5 6 8 7 5 12 15 12 11 13 10 9 9 8 8 9 9 8 8 9 7 6 7 6 7 11 15 16 17 17 19 21 23 24 25 27 29 31 32 31 31 32 33 35 35 36 36 36 35 35 35 35 35 35 36 36 36 36 35 34 33 32 31
2 3 6 5 5 10 12 12 15 18 17 13 12 13 13 10 5 5 7 3 2 4 4 4 9 10 5 5 10 13 13 15 15 11 7 6 7 9 9 9 8 7 8 8 7 7 6 7 10 12 13 13 13 16 18 20 21 22 24 26 28 29 29 30 31 32 33 33 33 34 35 35 35 34 34 34 34 34 35 35 34 33 32 32 31 30
3 3 5 4 4 6 7 6 3 5 13 12 8 9 10 9 8 8 9 5 2 4 3 2 6 9 4 7 9 10 11 12 8 6 5 6 8 9 8 8 7 7 7 7 7 7 6 7 10 11 11 12 14 15 16 18 19 21 22 22 24 26 27 29 30 30 30 30 31 32 32 32 33 32 32 32 33 33 34 34 33 31 30 30 29 28
2 4 5 3 1 1 2 1 5 4 8 9 5 4 8 10 11 8 6 4 3 5 4 2 8 10 4 6 8 6 5 6 6 5 6 6 6 7 8 7 6 7 6 6 7 7 6 7 9 9 10 12 16 17 17 17 18 19 19 20 21 24 26 26 27 27 27 28 29 30 30 30 31 30 30 31 32 33 32 31 30 29 29 28 27 26
4 6 8 6 3 1 2 2 2 4 4 8 6 7 10 14 13 4 2 2 3 9 10 6 12 12 3 1 3 5 6 7 9 8 6 6 6 6 7 6 6 6 6 6 7 6 7 8 7 7 9 13 17 18 18 17 17 18 18 19 20 21 22 22 23 24 25 27 28 28 29 29 29 29 30 31 32 32 30 29 28 28 27 26 25 24
7 7 9 10 9 8 8 11 11 10 9 9 12 14 15 19 18 11 6 7 8 12 12 9 14 11 2 3 2 4 5 7 9 8 5 6 7 6 6 6 5 5 6 7 7 7 7 7 6 7 11 15 16 16 16 17 17 18 18 18 19 19 19 19 20 22 23 25 26 28 29 28 29 30 31 31 31 30 29 28 27 26 25 25 24 23
3 4 10 13 13 16 16 15 17 17 14 13 18 23 23 24 25 19 12 11 12 14 12 14 21 14 1 1 5 5 6 7 7 8 6 5 6 6 6 6 5 5 6 7 6 6 6 7 8 9 11 14 15 15 16 17 17 18 19 19 19 19 19 19 20 21 22 23 25 26 27 28 29 30 30 29 28 27 26 26 25 25 24 24 24 23
3 5 14 16 18 19 11 5 10 15 16 18 21 25 24 24 25 21 17 17 16 14 12 16 23 19 8 3 6 6 7 6 6 7 6 5 6 5 5 5 5 5 5 5 6 7 7 9 9 8 9 13 14 15 16 16 17 18 19 20 19 19 20 20 20 21 22 23 24 25 27 27 28 27 26 26 25 25 24 24 24 24 24 25 25 24
5 8 16 17 20 19 6 7 11 16 17 20 22 24 23 22 23 23 22 23 19 14 15 18 20 19 12 6 8 9 8 7 7 7 5 4 5 5 5 5 6 6 6 7 8 8 9 9 9 7 8 11 13 15 15 16 17 19 20 21 21 21 22 21 20 21 21 23 25 26 26 25 25 24 24 24 23 23 23 24 24 24 25 25 25 25
4 8 15 15 17 17 8 7 11 15 16 18 19 21 21 21 22 22 22 24 21 15 15 17 17 15 11 11 12 12 9 7 5 3 3 3 4 5 5 6 7 7 7 8 9 8 8 8 8 6 6 9 12 15 16 18 20 22 23 24 23 23 23 21 21 21 22 24 26 25 24 23 23 23 23 23 24 24 24 24 25 25 26 26 26 26
6 9 12 10 11 13 9 7 10 14 17 18 19 19 18 17 18 18 19 20 18 15 16 18 17 15 12 12 14 13 10 7 5 4 4 5 6 5 6 7 8 8 8 9 8 8 8 7 7 7 7 10 15 17 19 21 23 24 24 25 25 25 24 22 22 23 24 26 25 24 24 24 24 24 24 25 25 25 26 26 26 27 27 27 26 26
7 8 8 8 9 10 10 11 13 14 16 20 21 19 17 16 16 18 20 21 20 20 22 20 16 17 15 10 11 11 12 13 14 10 7 6 6 7 7 8 8 8 8 9 8 8 8 9 9 9 9 13 17 19 22 25 24 23 26 28 28 27 25 24 25 26 26 27 26 26 26 25 25 26 26 27 27 27 27 27 27 27 26 26 25 23
8 8 7 8 8 8 11 15 15 13 14 16 18 19 20 20 21 21 22 25 24 21 19 18 19 19 10 7 9 11 14 17 18 14 10 10 9 8 8 8 8 8 8 9 9 9 10 10 9 10 13 17 19 24 27 27 25 27 30 30 28 27 27 27 28 28 28 29 28 28 28 27 27 27 28 28 28 28 27 26 26 26 25 24 22 20
11 12 9 7 8 10 13 14 12 12 12 11 14 23 28 29 30 29 27 29 29 22 15 15 18 15 4 9 12 15 12 14 15 13 12 12 10 11 11 9 8 9 9 9 9 10 10 9 10 13 17 20 24 28 28 27 28 30 29 26 25 26 28 29 29 30 30 30 30 29 29 28 29 29 29 29 28 27 26 26 25 25 23 21 20 19
9 13 9 6 6 7 9 11 10 11 10 11 16 25 30 31 31 28 26 26 23 18 16 17 19 19 14 13 12 9 9 11 11 10 11 13 14 15 13 9 8 10 11 11 11 12 11 9 10 14 20 25 30 29 26 27 30 29 26 25 26 27 29 30 31 31 31 31 30 31 30 30 30 30 29 28 27 26 26 26 25 24 23 21 20 20
3 8 8 7 6 4 7 10 9 5 8 14 17 18 20 20 17 15 17 21 21 21 23 25 28 29 23 13 6 4 7 8 7 9 13 16 15 13 12 11 11 12 14 13 12 13 14 15 18 22 26 28 27 25 25 29 30 27 26 25 26 28 30 30 30 30 31 31 32 32 32 32 31 31 30 29 27 28 28 28 27 26 24 23 22 21
3 2 4 6 8 7 8 10 7 3 9 15 14 12 15 19 20 19 20 24 27 27 22 22 26 25 18 11 7 4 4 3 4 11 15 15 12 11 12 12 12 14 15 15 17 21 26 28 28 27 27 24 21 22 26 29 27 25 26 25 26 28 28 27 29 32 33 34 35 35 34 34 33 32 31 30 30 31 32 30 29 27 25 24 24 23
6 4 2 2 5 6 7 9 7 7 11 13 14 17 21 25 27 24 19 17 16 15 14 16 22 23 22 17 9 6 6 3 9 13 11 11 9 9 9 11 13 15 15 16 20 26 32 33 29 27 25 21 21 23 25 26 25 25 25 25 26 27 26 27 32 35 35 37 39 38 37 36 35 34 33 32 33 34 34 32 30 28 27 26 26 26
7 5 2 1 3 4 7 9 8 8 9 11 17 19 17 16 14 10 8 13 11 13 18 21 23 25 25 17 8 8 6 6 14 13 7 12 12 12 13 15 16 15 16 22 25 26 30 34 31 26 21 19 23 25 25 26 26 25 26 27 27 25 26 30 36 39 40 43 43 41 39 37 37 36 35 36 36 36 35 33 31 30 28 27 26 26
6 5 4 5 4 4 6 6 4 4 5 6 10 11 10 12 14 10 10 18 16 14 16 19 22 26 24 12 9 8 9 11 16 11 9 14 15 15 16 18 16 13 16 24 30 32 34 34 28 21 18 22 27 27 25 26 26 26 28 28 27 26 29 36 42 45 45 43 40 39 39 38 38 38 38 38 38 36 34 33 31 30 28 27 27 25
3 3 5 8 7 4 5 5 2 2 3 5 3 10 15 15 12 13 16 13 9 11 13 16 21 23 18 9 9 9 13 17 17 9 10 12 12 12 14 17 17 19 22 26 31 33 31 29 25 23 24 27 25 22 22 25 25 26 28 27 26 31 37 44 47 46 43 39 35 35 37 38 39 39 39 38 35 33 32 32 32 31 30 29 28 26
3 3 3 6 7 4 2 3 3 2 2 5 1 11 17 13 9 12 8 2 1 10 14 15 17 16 13 11 12 13 17 19 16 9 9 10 10 11 14 14 14 19 23 24 26 26 23 22 23 24 25 24 20 18 20 22 24 26 26 24 28 36 44 47 46 41 37 35 35 35 36 37 38 38 37 35 33 32 32 32 32 31 30 30 29 28
2 3 3 4 5 3 3 2 3 3 3 7 2 7 10 6 5 3 1 4 3 3 8 9 10 12 12 13 16 18 18 18 15 10 8 9 9 10 13 13 12 14 14 15 17 18 16 17 18 19 21 21 18 18 19 20 24 25 24 26 34 41 44 44 40 36 33 33 34 35 36 36 37 36 35 34 33 32 32 31 32 31 31 31 30 28
1 1 2 3 2 3 4 4 3 3 2 4 3 1 1 1 2 2 3 3 5 3 1 2 3 5 5 7 12 13 13 14 14 9 8 9 10 10 12 11 8 7 7 9 13 15 14 15 16 18 20 20 18 19 20 22 25 25 25 30 37 40 40 38 34 31 31 32 32 34 35 36 35 35 34 34 33 32 31 31 32 32 32 32 31 29
1 1 1 1 1 2 3 3 2 2 2 2 1 1 4 4 3 2 2 2 3 3 0 2 1 3 2 4 6 5 6 9 9 5 4 6 7 8 10 9 7 7 9 11 14 16 17 17 17 17 18 19 18 18 21 24 26 25 27 32 36 37 39 37 33 31 32 32 33 34 34 34 34 34 34 33 33 33 33 33 33 33 33 32 31 30
0 2 2 0 2 2 2 3 2 2 4 4 2 3 5 5 4 3 3 4 4 4 2 1 1 2 2 2 3 3 5 7 7 5 4 5 6 7 8 8 9 10 11 11 14 17 18 17 16 15 17 20 21 21 23 26 27 28 30 33 34 35 36 35 32 32 33 33 34 34 33 32 31 32 32 32 33 33 34 34 34 33 32 32 31 30
2 3 2 1 1 2 1 2 3 1 3 4 3 2 3 5 5 4 4 5 5 5 5 3 3 3 2 3 5 5 6 6 6 6 6 5 7 8 7 8 9 9 10 13 17 19 18 15 14 14 15 20 24 25 26 27 29 31 32 32 32 31 31 30 31 32 33 33 33 32 32 32 31 31 31 31 32 33 32 33 34 32 31 32 32 30
2 1 2 1 2 2 2 3 2 2 3 5 4 3 4 6 6 5 5 5 5 5 5 2 2 2 1 2 5 5 5 5 5 5 6 5 6 7 7 7 8 8 11 15 19 19 16 14 14 15 15 20 26 27 25 27 30 31 31 31 29 26 25 28 31 32 33 33 32 31 31 32 32 32 32 32 34 34 34 34 35 35 35 37 37 34
1 0 1 1 1 2 3 4 3 3 5 6 6 4 3 4 6 7 7 6 6 6 5 4 2 4 4 4 4 3 4 6 5 6 6 6 6 6 7 7 7 8 11 15 17 16 15 15 16 17 17 22 26 25 24 26 29 29 29 30 29 25 25 26 28 29 29 28 27 28 29 30 31 31 31 31 33 34 34 35 36 36 35 35 35 35
1 2 1 1 0 3 3 3 2 1 3 5 5 3 2 3 5 7 8 7 7 7 5 5 5 3 5 5 4 4 5 7 7 6 6 6 6 8 7 7 7 8 11 15 16 14 14 16 17 16 19 23 25 23 22 25 27 26 26 27 27 26 27 27 26 25 25 25 26 28 28 28 28 28 28 27 28 29 29 29 31 32 31 30 30 30
2 3 2 1 2 2 2 2 2 1 2 4 4 4 4 3 4 6 9 9 8 8 5 5 7 7 5 4 4 6 7 8 7 6 6 6 7 8 9 8 7 7 12 15 13 12 14 15 14 14 18 23 23 21 21 23 24 23 22 23 24 26 28 27 25 24 25 27 29 29 29 28 27 27 27 26 26 27 25 24 24 26 27 27 27 27
Wind_Direction
164 164 193 206 201 197 197 200 202 163 154 157 155 183 198 208 231 205 209 241 178 179 233 223 237 252 247 250 253 253 211 221 251 250 247 245 240 239 231 229 227 227 236 237 236 235 231 229 228 226 225 224 224 224 223 222 222 223 222 222 223 224 223 222 221 220 220 219 220 222 224 227 230 232 234 236 238 238 240 240 241 243 245 244 240 236
171 191 209 207 195 188 186 185 172 151 151 153 167 191 208 213 227 211 205 231 163 176 245 229 245 257 250 253 259 257 225 228 236 238 243 239 236 235 231 234 232 233 242 242 241 239 234 232 229 226 223 221 220 221 220 221 223 223 222 221 223 223 221 221 221 219 220 221 221 222 224 227 229 231 232 234 236 237 238 240 241 243 244 245 243 240
184 212 212 198 177 164 166 170 163 161 166 169 172 182 209 209 219 270 234 191 154 181 251 239 245 256 254 256 262 254 236 235 230 229 236 236 236 234 228 231 236 239 242 242 243 239 234 232 229 225 221 220 221 221 220 221 222 221 221 222 222 222 221 222 221 221 222 223 224 226 229 231 231 233 235 237 239 239 239 240 241 242 243 244 244 243
192 218 204 183 170 163 165 179 177 160 173 180 171 178 205 170 152 236 241 177 170 179 197 229 268 267 262 264 263 251 235 238 239 234 236 234 234 236 230 228 230 233 236 240 242 238 233 229 226 222 220 221 220 220 220 219 220 220 220 221 221 221 221 222 222 223 223 224 226 228 231 233 235 237 238 239 240 241 241 241 241 242 243 244 244 244
198 208 174 173 178 169 165 180 185 185 182 194 193 189 186 155 171 205 181 133 151 274 107 69 321 278 240 241 258 253 214 231 241 237 242 239 232 236 239 237 231 230 231 235 240 237 228 224 222 221 221 220 219 219 220 218 218 219 221 222 221 221 221 221 223 223 222 222 223 225 226 230 233 235 235 236 237 238 238 240 241 242 243 243 244 244
206 163 158 168 174 170 172 184 190 191 185 215 216 187 156 151 166 161 137 113 92 278 260 114 289 277 235 226 251 259 198 235 238 232 241 241 232 231 237 243 238 235 233 232 239 238 226 222 222 222 221 218 219 220 221 220 220 221 221 222 220 220 221 222 222 221 219 219 219 219 219 221 224 226 228 230 233 234 235 238 240 242 243 243 244 245
199 178 158 159 168 173 181 192 189 181 186 222 189 153 140 132 136 150 153 153 183 242 279 158 209 266 282 233 241 246 238 250 250 241 245 242 238 231 227 237 236 235 236 234 240 241 230 221 217 221 221 218 220 222 222 221 222 221 221 221 220 220 221 222 221 219 218 217 218 219 220 221 221 224 230 232 234 235 237 240 241 242 244 244 245 245
163 169 159 161 169 174 188 198 187 176 184 216 150 149 152 114 116 154 160 190 224 262 319 174 174 261 270 249 240 222 240 265 267 256 251 237 235 236 230 234 235 235 235 232 238 238 232 223 216 220 222 221 222 223 222 221 221 222 221 221 221 221 221 221 220 218 217 217 218 220 222 224 226 229 234 236 236 238 240 243 244 244 245 246 247 247
165 172 168 166 170 181 196 191 170 168 179 222 134 145 145 108 107 118 130 173 318 341 251 218 135 233 261 263 307 176 233 258 258 251 249 237 230 233 235 238 238 239 236 231 235 235 232 226 223 225 225 225 225 223 222 221 222 222 221 221 221 220 220 220 219 219 218 218 219 220 221 225 229 233 236 238 239 240 241 242 244 246 246 247 248 248
167 176 168 166 173 187 180 142 151 166 177 136 109 101 84 77 75 68 88 106 45 288 230 203 174 219 263 253 214 137 220 242 250 249 246 241 237 234 235 240 239 240 238 235 237 238 238 233 229 230 229 228 227 224 223 222 222 221 220 219 218 219 220 219 219 219 219 218 218 220 222 226 231 233 235 237 239 241 241 242 243 243 245 246 247 249
152 154 158 165 179 171 120 113 152 158 141 116 99 82 67 46 46 54 46 79 60 263 224 192 185 202 267 250 191 193 209 219 238 251 248 245 250 246 236 234 236 237 237 236 239 243 246 243 237 232 228 228 228 225 223 221 221 220 218 217 217 219 219 218 218 218 219 218 218 221 224 227 231 232 232 234 237 238 238 239 240 241 243 244 246 248
141 139 160 173 166 141 115 112 123 131 141 128 104 110 105 35 26 35 9 62 202 249 225 189 174 180 241 244 176 216 226 214 226 236 237 232 239 246 242 240 239 237 239 238 239 244 246 245 236 225 223 225 224 221 220 220 219 218 217 216 216 218 218 217 217 216 218 219 219 223 225 228 231 231 230 233 236 236 236 238 239 240 242 243 244 246
151 165 172 156 152 145 135 129 99 133 161 146 127 144 148 148 145 200 223 146 220 246 287 173 152 185 240 245 216 242 245 236 235 230 229 226 230 241 246 250 251 247 252 246 239 240 238 239 229 217 217 218 217 216 217 216 216 216 217 216 216 217 217 216 216 216 217 219 221 223 225 228 231 231 231 234 237 237 237 238 238 238 239 240 242 242
160 191 169 143 150 160 153 149 155 167 172 174 166 166 177 172 183 206 197 193 236 237 303 157 150 236 264 261 231 238 240 238 238 235 234 232 234 242 246 253 262 262 256 245 240 240 233 231 224 217 216 213 213 215 215 214 214 214 215 215 216 218 217 215 215 216 217 219 223 224 226 229 230 230 232 234 237 238 238 239 239 239 239 241 243 244
169 194 176 169 168 169 171 172 171 161 167 188 176 164 198 189 188 208 194 199 219 175 316 203 173 208 219 258 247 238 247 253 251 248 246 246 244 247 257 264 266 266 259 248 242 240 234 229 222 219 218 215 215 214 212 213 213 213 214 215 216 218 217 215 215 216 218 220 224 225 227 229 229 231 233 235 237 238 239 240 240 241 242 245 248 249
184 219 176 172 159 165 177 175 157 141 156 194 154 160 223 199 151 157 200 188 137 110 252 217 231 223 201 280 280 251 253 255 251 252 247 251 252 251 259 258 255 259 260 253 244 243 241 234 225 220 219 217 216 214 213 214 213 213 215 215 217 219 218 216 216 217 219 222 224 225 227 229 229 231 233 235 237 238 239 241 242 244 247 249 251 252
195 218 170 163 156 174 179 164 159 159 156 167 172 190 207 120 109 100 260 6 72 201 236 185 244 286 325 283 269 249 257 259 251 246 233 237 244 243 247 246 245 248 250 249 243 244 245 237 228 224 220 217 215 214 215 216 216 216 217 217 218 220 219 218 218 219 220 222 224 225 227 229 229 230 232 234 236 238 239 242 245 248 250 251 252 253
183 182 172 168 173 185 176 149 164 176 144 154 191 188 128 81 98 106 170 11 46 239 264 213 234 261 293 261 256 236 249 254 252 249 242 237 228 233 244 243 242 242 245 255 253 246 244 230 226 225 222 221 219 218 219 220 220 220 219 219 219 219 219 219 220 221 222 223 224 226 228 229 230 231 233 235 237 239 241 243 246 248 250 251 252 254
163 99 206 190 179 175 141 128 163 208 22 157 180 164 139 167 207 155 174 189 190 234 281 279 250 243 219 226 222 225 234 239 248 253 254 249 227 227 241 241 244 247 249 258 255 246 239 223 222 223 223 225 223 223 224 223 222 221 221 221 222 222 223 222 222 222 223 224 225 227 229 231 232 232 234 236 238 240 242 245 247 248 250 252 253 255
169 146 194 217 163 146 145 158 178 194 325 18 117 146 166 196 191 191 190 166 181 226 269 281 289 244 222 194 178 220 235 234 244 248 241 241 232 225 231 230 234 236 235 242 246 246 241 229 227 223 223 227 225 225 226 224 223 222 222 222 223 225 226 224 224 224 225 226 227 229 230 232 233 234 236 238 239 241 243 245 246 248 251 252 254 255
173 176 163 129 124 152 171 194 187 184 178 152 161 177 198 201 172 190 203 124 142 202 241 261 264 254 239 176 182 211 233 237 237 238 230 233 234 230 230 228 223 222 227 232 237 246 246 242 239 232 229 231 228 227 226 223 224 224 224 224 224 225 225 225 225 225 227 228 228 230 231 233 235 237 239 240 240 242 244 246 247 249 252 253 254 254
169 189 165 151 166 176 188 200 197 192 184 177 185 186 187 189 170 186 212 188 132 203 194 209 259 261 236 184 191 200 219 233 240 251 247 229 228 234 234 230 221 215 224 225 224 235 240 242 245 240 237 233 228 227 224 222 223 223 224 225 225 225 225 226 227 227 228 229 230 231 233 235 236 237 238 238 239 241 243 246 248 249 250 251 253 253
119 121 141 140 174 192 202 198 163 180 191 198 208 187 175 180 177 193 213 197 165 221 171 129 270 272 211 183 197 198 215 235 250 273 262 230 227 237 241 241 234 222 222 222 225 232 235 242 252 254 250 240 232 229 225 222 222 223 225 225 224 226 227 228 229 229 229 229 230 232 233 234 235 236 236 237 238 241 243 245 247 248 249 250 251 251
81 110 133 111 136 329 346 91 53 62 189 206 229 181 162 183 195 200 203 175 169 212 206 220 261 263 234 191 210 226 253 276 279 259 240 240 246 251 251 248 241 236 232 228 233 240 245 254 261 261 252 240 234 231 226 223 222 222 223 223 224 227 228 228 228 227 227 227 229 230 230 232 233 233 234 236 238 241 242 244 245 245 246 248 249 249
187 170 159 143 159 137 50 106 22 1 200 196 204 193 182 188 189 172 135 148 192 209 197 210 249 255 260 141 239 278 307 298 275 252 229 235 248 254 257 250 235 239 247 240 237 239 241 248 251 247 241 236 234 231 225 221 220 220 221 223 226 228 229 228 227 227 227 227 227 228 228 230 230 231 234 236 238 240 241 242 243 243 244 244 245 245
190 181 173 170 172 176 178 187 194 192 190 193 192 191 191 189 183 175 188 194 209 214 194 198 238 248 43 59 275 287 297 284 275 270 249 225 229 239 252 253 234 224 229 231 231 231 235 242 241 235 234 233 232 230 225 220 219 220 224 226 228 231 231 229 228 227 226 226 226 227 228 229 230 232 235 236 237 238 239 240 240 240 241 241 242 243
173 184 193 194 191 193 197 199 191 180 181 189 190 192 194 193 189 188 199 201 206 217 208 209 228 234 141 24 277 283 276 269 275 287 282 245 234 240 247 254 243 220 224 230 230 233 239 243 238 231 231 232 232 231 227 224 222 222 225 228 230 232 232 229 227 225 224 224 225 226 227 229 231 232 233 234 235 236 237 237 237 238 239 240 241 242
152 198 202 205 212 211 200 155 158 169 184 193 194 198 199 196 194 194 205 209 205 214 222 218 226 232 229 255 276 264 256 264 268 272 275 264 249 245 251 263 260 244 240 236 230 228 230 237 238 233 232 232 231 230 229 229 228 227 230 233 233 232 231 227 225 223 223 223 224 226 227 228 229 230 230 231 232 234 235 235 236 237 238 239 240 241
174 207 204 204 216 216 180 112 155 173 191 199 198 202 202 199 199 201 211 216 209 212 229 226 225 230 227 232 258 251 233 235 244 249 265 280 272 261 259 260 255 247 239 234 232 225 224 235 239 231 231 232 232 232 231 231 231 230 231 232 231 230 229 226 223 221 220 222 223 225 225 226 226 226 227 229 230 231 233 234 235 236 237 239 240 242
188 212 207 203 215 215 186 148 170 178 192 205 205 204 203 201 204 209 217 224 222 225 239 242 242 241 224 207 228 244 232 211 222 259 284 275 266 258 252 247 244 241 235 232 234 232 230 239 245 241 238 236 234 233 232 231 232 231 231 230 227 226 225 221 219 218 218 220 222 223 222 223 224 224 225 227 228 230 232 233 235 236 238 240 241 242
214 213 203 195 211 216 195 175 182 181 190 204 208 206 203 200 206 216 224 229 232 236 244 250 255 255 236 201 206 230 238 225 224 229 231 249 253 236 228 237 239 238 238 237 240 247 250 251 250 247 240 235 234 233 233 234 234 233 232 230 227 225 221 216 216 217 219 221 222 222 222 223 223 225 226 227 228 230 232 233 235 237 239 241 242 244
212 212 198 189 211 214 190 193 200 188 191 205 207 200 194 194 203 213 219 221 218 219 229 237 242 246 239 201 186 208 221 231 241 236 223 240 245 228 228 240 241 240 243 244 244 249 252 250 246 240 236 237 234 232 234 235 233 233 233 231 227 223 217 214 216 217 220 223 222 221 223 223 224 225 226 226 228 230 231 233 235 238 240 241 242 242
193 207 200 186 206 214 194 198 202 193 199 211 205 193 189 195 204 210 217 222 217 212 219 225 230 238 230 154 172 203 203 215 232 236 232 239 240 234 236 241 249 253 250 249 247 245 245 245 241 236 237 238 235 235 238 235 231 234 236 232 226 219 213 212 214 217 219 222 222 221 222 223 223 225 226 226 228 229 231 233 236 237 237 237 235 232
191 204 208 186 200 211 195 188 194 203 210 205 191 192 194 196 202 206 212 218 215 212 220 231 240 248 203 142 196 216 200 204 219 223 231 243 247 246 240 229 239 255 256 254 253 249 247 245 244 244 243 242 243 244 244 238 235 238 237 231 223 216 212 211 213 216 219 220 221 222 222 222 223 225 227 227 227 228 230 232 233 232 229 227 224 221
200 203 206 192 204 207 176 174 202 216 204 191 192 197 199 200 203 208 218 224 220 219 233 245 251 248 227 203 214 216 193 204 218 214 218 225 229 239 243 233 232 248 256 257 255 253 250 245 246 245 243 245 247 244 240 237 237 236 231 225 221 215 212 212 213 216 219 219 220 221 221 221 223 225 227 226 225 226 228 228 227 224 220 218 218 217
205 212 209 196 195 185 165 187 215 210 179 197 207 198 196 202 202 209 232 237 225 216 218 225 233 237 232 220 212 195 185 198 219 225 222 220 218 222 230 228 225 234 245 248 249 252 250 243 239 239 242 247 248 240 236 238 236 230 224 220 217 214 212 212 212 215 218 219 220 221 221 221 222 224 224 223 221 222 223 224 222 219 215 214 214 215
124 222 238 213 202 195 189 198 211 177 181 206 215 190 183 194 191 194 218 228 220 213 213 223 235 243 245 233 208 176 138 142 235 242 231 221 214 214 221 228 227 229 237 243 246 250 252 250 247 245 247 252 250 242 240 240 233 223 218 215 213 213 212 210 214 217 219 220 222 222 222 221 220 221 221 218 218 219 220 220 219 215 212 211 210 210
160 183 221 236 222 210 199 198 205 206 201 207 208 195 193 199 197 198 215 232 224 206 204 224 237 242 242 233 203 136 108 161 247 251 225 196 202 220 231 239 236 229 229 235 241 248 253 255 256 255 252 251 249 246 244 240 229 217 212 211 211 211 208 210 218 220 220 223 225 224 223 221 220 219 217 216 217 219 218 218 216 213 211 210 210 211
160 169 144 161 247 231 209 203 204 210 213 209 207 203 197 190 177 171 216 242 229 193 193 211 226 234 238 228 179 137 141 213 248 252 185 160 186 208 218 229 233 231 232 234 237 244 250 254 257 257 251 242 243 245 241 232 222 211 208 210 209 208 209 214 220 222 223 226 227 225 223 222 219 218 217 218 219 219 218 216 214 211 210 210 212 213
159 167 177 197 232 259 237 227 215 214 234 229 210 194 162 136 123 133 208 235 230 203 194 204 217 230 235 212 154 164 192 220 244 241 166 168 193 200 209 223 226 224 230 235 237 241 247 251 255 253 242 236 240 243 235 223 213 207 209 210 205 206 213 220 224 226 226 227 226 223 222 220 219 218 218 220 220 218 217 216 212 209 208 208 210 213
159 170 197 206 216 241 246 249 260 244 274 286 210 150 132 126 143 184 212 233 222 182 184 202 214 228 231 190 158 198 216 225 240 225 164 181 202 199 212 225 224 222 227 231 236 240 244 250 253 251 248 246 247 245 232 216 206 207 212 210 203 208 220 227 229 228 227 226 225 224 222 221 220 220 220 220 219 216 215 214 211 208 206 205 207 210
162 158 187 201 204 211 222 251 267 253 316 331 239 150 139 144 189 209 215 280 155 166 185 204 210 218 218 193 191 217 227 231 237 215 178 195 205 205 220 229 226 231 234 235 239 243 246 253 255 254 256 256 253 248 235 216 208 212 214 211 212 219 227 232 231 229 227 226 225 225 224 222 221 221 219 218 217 214 213 212 210 208 205 204 205 207
181 161 174 191 187 171 171 216 245 237 332 356 0 158 151 164 225 244 7 356 337 200 198 207 209 213 215 208 211 221 229 235 235 217 201 213 212 214 227 227 225 235 241 244 250 250 252 260 262 260 262 262 256 249 236 217 213 217 215 217 225 230 231 232 231 229 229 227 225 225 225 223 222 220 218 217 216 213 211 208 207 206 205 204 204 204
248 168 181 194 180 167 186 202 198 194 259 353 21 141 175 246 283 353 34 7 338 324 194 182 239 248 230 222 229 232 235 242 241 226 215 224 226 229 237 239 245 264 271 266 264 263 262 265 267 265 267 265 256 247 235 222 218 218 218 226 235 236 235 234 232 230 229 227 226 225 224 223 222 219 217 216 213 210 208 206 204 203 204 204 203 201
254 179 173 221 224 185 192 207 188 179 254 312 2 254 284 283 274 321 359 346 317 298 133 89 355 309 277 229 240 253 252 252 257 253 241 254 262 259 261 273 286 284 275 269 267 266 264 263 266 270 271 268 259 248 239 230 222 217 223 235 240 239 237 235 231 228 227 227 226 225 224 222 219 217 216 214 210 207 206 204 202 201 201 202 201 200
269 170 125 78 248 250 245 236 247 297 297 296 262 230 258 276 274 275 293 289 260 237 236 123 171 261 274 216 209 232 247 252 264 269 251 255 268 265 263 272 274 268 266 268 268 265 262 264 267 266 263 263 258 249 243 237 228 225 235 244 244 240 237 233 228 227 227 226 225 224 221 218 215 213 213 212 210 209 207 204 202 200 198 198 199 200
275 194 143 71 265 280 269 181 174 215 270 294 316 288 271 275 259 230 242 262 255 245 251 237 203 220 227 182 190 219 246 245 243 252 249 235 243 252 248 250 259 262 259 260 264 264 262 262 262 256 251 256 257 251 245 241 236 237 244 248 245 241 237 232 227 226 225 224 223 221 217 214 212 210 209 209 208 208 209 208 205 201 198 197 198 200
284 185 160 195 206 210 220 207 202 252 274 286 295 288 283 281 271 256 253 261 272 284 282 258 201 191 214 227 209 214 257 263 235 241 259 251 246 256 253 244 247 251 251 255 260 263 259 253 253 252 249 255 260 258 252 247 246 246 248 248 245 242 237 232 227 225 224 222 220 217 215 213 211 208 206 207 207 207 207 207 206 204 203 203 201 200
314 178 186 194 213 269 282 282 299 321 315 302 286 267 271 291 296 296 288 283 288 295 297 297 255 204 211 249 238 203 254 272 250 235 252 260 259 258 252 247 248 248 251 257 261 259 249 241 243 246 248 255 262 263 259 256 255 253 251 249 246 241 236 233 229 226 225 222 217 215 215 213 211 209 207 206 207 209 210 209 208 208 210 210 208 205
311 237 200 104 240 267 267 244 219 253 304 288 279 279 299 336 340 323 312 311 306 297 311 337 321 262 220 231 225 196 228 259 251 234 238 249 257 260 257 253 253 257 262 269 272 266 250 241 241 244 251 261 266 263 258 259 260 257 254 250 246 240 236 233 229 225 223 220 217 216 215 212 211 211 209 207 207 209 211 213 214 214 215 215 214 213
210 233 218 190 243 263 278 257 246 341 322 289 306 333 344 32 25 336 313 309 305 301 317 338 325 311 299 268 215 197 223 252 244 221 231 254 258 262 269 269 264 270 276 277 278 276 269 262 251 242 249 262 270 268 263 264 265 263 258 252 245 239 235 230 225 222 219 217 216 215 213 211 210 208 208 208 208 205 205 208 212 215 218 219 217 216